Regional Weather Roundup
Issued by NWS

Home | Current Version | Previous Version | Graphics & Text | Print | Product List | Glossary On
Versions: 1 2 3 4 5 6 7 8 9 10 11 12 13 14 15 16 17 18 19 20 21 22 23 24 25 26 27 28 29 30 31 32 33 34 35 36 37 38 39 40 41 42 43 44 45 46 47 48 49 50
000
ASUS45 KPSR 250510
RWRAZ

ARIZONA HOURLY REGIONAL WEATHER ROUNDUP
NATIONAL WEATHER SERVICE PHOENIX AZ
1000 PM MST MON JUL 24 2017

NOTE: FAIR INDICATES FEW OR NO CLOUDS BELOW 12,000 FEET WITH NO
SIGNIFICANT WEATHER AND/OR OBSTRUCTIONS TO VISIBILITY.

AZZ001>003-036-250600-
NORTHWEST ARIZONA

CITY           SKY/WX    TMP DP  RH WIND       PRES   REMARKS
KINGMAN        PTCLDY    73  68  84 SW6       30.02S
$$

AZZ004>008-015-016-018-250600-
NORTH CENTRAL ARIZONA

CITY           SKY/WX    TMP DP  RH WIND       PRES   REMARKS
GRAND CANYON   LGT RAIN  62  61  96 SW9       30.24R
WILLIAMS       CLOUDY    63  59  88 SE6       30.25S
PRESCOTT       MOCLDY    69  66  90 SW3       30.14R
FLAGSTAFF      CLOUDY    61  60  97 SW9       30.27F
PAYSON         MOCLDY    68  64  88 CALM      30.20R
PAGE           MOCLDY    79  58  48 W8        30.03R
$$

AZZ009>014-017-250600-
NORTHEAST ARIZONA

CITY           SKY/WX    TMP DP  RH WIND       PRES   REMARKS
WINSLOW        MOCLDY    69  66  90 E6        30.13R
SAINT JOHNS    PTCLDY    65  65 100 CALM      30.18R
WINDOW ROCK    CLOUDY    63  59  87 S3        30.25R
SHOW LOW       MOCLDY    59  57  94 S8        30.25S
$$

AZZ540-542>544-546-548-250600-
GREATER PHOENIX AREA

CITY           SKY/WX    TMP DP  RH WIND       PRES   REMARKS
PHOENIX        MOCLDY    87  71  58 SE5       29.88R
BUCKEYE        MOCLDY    82  75  78 CALM      29.89R
LUKE AFB       MOCLDY    85  73  67 CALM      29.87R
DEER VALLEY    MOCLDY    84  72  67 E6        29.90R
SCOTTSDALE     MOCLDY    85  70  60 E3        29.92R
MESA-GATEWAY   MOCLDY    82  73  74 SE6       29.92R
$$

AZZ539-553-250600-
SOUTHWEST MARICOPA COUNTY AND PINAL COUNTY

CITY           SKY/WX    TMP DP  RH WIND       PRES   REMARKS
CASA GRANDE    PTCLDY    84  74  71 NE6       29.92R
GILA BEND      CLOUDY    79  73  83 E6        29.85F
$$

AZZ503-504-507>509-250600-
SOUTHEAST ARIZONA

CITY           SKY/WX    TMP DP  RH WIND       PRES   REMARKS
TUCSON         MOCLDY    77  71  82 S3        30.01R
DAVIS-MONTHAN  CLEAR     76  73  91 E6        30.00R
NOGALES        CLEAR     72  68  87 CALM      30.09R
SIERRA VISTA   MOCLDY    71  66  85 CALM      30.16R
DOUGLAS        CLOUDY    70  68  93 CALM      30.11R
$$

AZZ532-250600-
SOUTHWEST ARIZONA

CITY           SKY/WX    TMP DP  RH WIND       PRES   REMARKS
YUMA           NOT AVBL
$$

CAZ041-043-047-048-061-525>527-560>570-250600-
SOUTHERN CALIFORNIA

CITY           SKY/WX    TMP DP  RH WIND       PRES   REMARKS
DOWNTOWN L.A.  PTCLDY    71  64  78 W5        29.90R
L.A. AIRPORT   PTCLDY    69  65  86 W9        29.91R
SAN DIEGO      PTCLDY    71  63  75 S6        29.95R
BURBANK        PTCLDY    75  60  59 E3        29.91R
ONTARIO        PTCLDY    73  63  70 SW7       29.93R
RIVERSIDE      CLEAR     72  64  76 SW5       29.93R
PALM SPRINGS   PTCLDY    93  56  28 NW13      29.81R
EL CENTRO NAS  MOCLDY    91  64  40 S5        29.77R
IMPERIAL       PTCLDY    94  67  41 SE9       29.74R
BLYTHE         MOCLDY    91  70  49 SE9       29.80R
NEEDLES        PTCLDY    93  67  42 S6        29.84R
$$

NVZ020-UTZ003-250600-
SOUTHERN NEVADA-UTAH

CITY           SKY/WX    TMP DP  RH WIND       PRES   REMARKS
LAS VEGAS      MOCLDY    87  64  46 S14       29.87R
SALT LAKE CITY TSTM      82  59  45 SE16      30.00R
$$

NMZ009-TXZ055-250600-
NEW MEXICO-WEST TEXAS

CITY           SKY/WX    TMP DP  RH WIND       PRES   REMARKS
ALBUQUERQUE    CLOUDY    79  56  45 W8        30.16R
EL PASO        CLOUDY    82  64  54 W7        30.09R
$$


........................KEY........................
SKY/WX - SKY CONDITION/WEATHER
TMP    - TEMPERATURE IN FAHRENHEIT
DP     - DEW POINT IN FAHRENHEIT
RH     - RELATIVE HUMIDITY IN PERCENT
WIND   - DIRECTION AND SPEED IN MILES PER HOUR (MPH)
VRB    - VARIABLE WIND DIRECTION
PRES   - MEAN SEA LEVEL PRESSURE IN INCHES OF MERCURY
         F - FALLING PRESSURE   R - RISING PRESSURE
         S - STEADY PRESSURE
VSB    - VISIBILITY IN MILES
HX     - HEAT INDEX IN FAHRENHEIT
WCI    - WIND CHILL INDEX IN FAHRENHEIT
TC     - TEMPERATURE IN CELSIUS WHICH IS ALSO KNOWN AS
         TEMPERATURE IN CENTIGRADE
AFB    - AIR FORCE BASE
         LUKE AFB IS LUKE AIR FORCE BASE
         DAVIS-MONTHAN IS DAVIS-MONTHAN AIR FORCE BASE
NAS    - NAVAL AIR STATION
         EL CENTRO NAS IS EL CENTRO NAVAL AIR STATION
N/A    - NOT AVAILABLE




USA.gov is the U.S. government's official web portal to all federal, state and local government web resources and services.